Weather History for Malaga, Spain

Change the Weather History Date:

Monday, April 7, 2014

  Actual Average Record
Temperature  
Mean Temperature 63 °F -  
Max Temperature 75 °F 70 °F 82 °F (2004)
Min Temperature 51 °F 52 °F 42 °F (2003)
Degree Days  
Heating Degree Days 2    
Growing Degree Days 13 (Base 50)    
Moisture  
Dew Point 51 °F    
Average Humidity 64    
Maximum Humidity 88    
Minimum Humidity 28    
Precipitation  
Precipitation 0.00 in 0.05 in - ()
Sea Level Pressure  
Sea Level Pressure 30.10 in    
Wind  
Wind Speed 5 mph ()    
Max Wind Speed 10 mph    
Max Gust Speed -    
Visibility 15.6 miles    
Events      
Averages and records for this station are not official NWS values.
T = Trace of Precipitation, MM = Missing Value Source: Averaged Metar Reports

Daily Weather History Graph

Daily Weather History Graph

Search for Another Location

Airport:

Trip Planner

Search our weather history database for the weather conditions in past years. The results will help you decide how hot, cold, wet, or windy it might be!

Date:

Astronomy

Apr. 07, 2014 Rise Set
Actual Time 7:55 AM CEST 8:45 PM CEST
Civil Twilight 7:29 AM CEST 9:11 PM CEST
Nautical Twilight 6:58 AM CEST 9:42 PM CEST
Astronomical Twilight 6:26 AM CEST 10:14 PM CEST
Moon 1:42 PM CEST (4/7) 3:08 AM CEST (4/7)
Length of Visible Light 13h 42m
Length of Day
12h 49m
Waxing Crescent, 51% of the Moon is Illuminated
Apr 7
Waxing Crescent
Apr 15
Full
Apr 22
Last Quarter
Apr 29
New
May 7
First Quarter

Hourly Weather History & Observations

Time (CEST) Temp. Dew Point Humidity Pressure Visibility Wind Dir Wind Speed Gust Speed Precip Events Conditions
12:00 AM 60.8 °F 53.6 °F 77% 30.09 in - Calm Calm - N/A   Clear
12:30 AM 59.0 °F 51.8 °F 77% 30.12 in - NW 1.2 mph - N/A   Clear
1:00 AM 62 °F 51 °F 59% 30.12 in - WNW 3.5 mph - -  
1:00 AM 55.4 °F 51.8 °F 88% 30.09 in - WNW 2.3 mph - N/A   Clear
1:30 AM 57.2 °F 50.0 °F 77% 30.09 in - WNW 3.5 mph - N/A   Clear
2:00 AM 60 °F 50 °F 61% 30.12 in 9 mi WNW 8.1 mph - -  
2:00 AM 57.2 °F 51.8 °F 82% 30.09 in - WNW 6.9 mph - N/A   Clear
2:30 AM 57.2 °F 50.0 °F 77% 30.09 in - WNW 6.9 mph - N/A   Clear
3:00 AM 58 °F 49 °F 65% 30.11 in - WNW 9.2 mph - -  
3:00 AM 55.4 °F 50.0 °F 82% 30.09 in - WNW 8.1 mph - N/A   Clear
3:30 AM 55.4 °F 50.0 °F 82% 30.09 in - WNW 9.2 mph - N/A   Clear
4:00 AM 57 °F 49 °F 67% 30.09 in - WNW 9.2 mph - -  
4:00 AM 55.4 °F 50.0 °F 82% 30.09 in - WNW 8.1 mph - N/A   Clear
4:30 AM 55.4 °F 48.2 °F 77% 30.06 in - WNW 8.1 mph - N/A   Clear
5:00 AM 56 °F 49 °F 69% 30.09 in 9 mi WNW 8.1 mph - -  
5:00 AM 53.6 °F 50.0 °F 88% 30.06 in - WNW 8.1 mph - N/A   Clear
5:30 AM 53.6 °F 50.0 °F 88% 30.06 in - WNW 6.9 mph - N/A   Clear
6:00 AM 55 °F 48 °F 71% 30.09 in - WNW 8.1 mph - -  
6:00 AM 53.6 °F 48.2 °F 82% 30.06 in - WNW 6.9 mph - N/A   Clear
6:30 AM 53.6 °F 48.2 °F 82% 30.06 in - WNW 8.1 mph - N/A   Clear
7:00 AM 55 °F 48 °F 69% 30.09 in - WNW 8.1 mph - -  
7:00 AM 53.6 °F 48.2 °F 82% 30.06 in - WNW 8.1 mph - N/A   Clear
7:30 AM 53.6 °F 48.2 °F 82% 30.09 in - WNW 10.4 mph - N/A   Clear
8:00 AM 54 °F 47 °F 72% 30.10 in 19 mi WNW 5.8 mph - -  
8:00 AM 51.8 °F 48.2 °F 88% 30.09 in - WNW 5.8 mph - N/A   Clear
8:30 AM 51.8 °F 48.2 °F 88% 30.09 in - WNW 6.9 mph - N/A   Clear
9:00 AM 56 °F 48 °F 68% 30.11 in - WNW 6.9 mph - -  
9:00 AM 53.6 °F 48.2 °F 82% 30.09 in - WNW 6.9 mph - N/A   Clear
9:30 AM 57.2 °F 50.0 °F 77% 30.09 in - WNW 6.9 mph - N/A   Clear
10:00 AM 63 °F 48 °F 48% 30.12 in - WNW 8.1 mph - -  
10:00 AM 60.8 °F 50.0 °F 68% 30.09 in - WNW 6.9 mph - N/A   Clear
10:30 AM 66.2 °F 51.8 °F 60% 30.12 in - WNW 3.5 mph - N/A   Clear
11:00 AM 69 °F 50 °F 39% 30.13 in 19 mi WNW 3.5 mph - -  
11:00 AM 68.0 °F 50.0 °F 52% 30.12 in - WNW 2.3 mph - N/A   Clear
11:30 AM 71.6 °F 48.2 °F 43% 30.12 in - East 1.2 mph - N/A   Clear
12:00 PM 75 °F 48 °F 28% 30.14 in - ESE 6.9 mph - -  
12:00 PM 71.6 °F 50.0 °F 46% 30.12 in - ESE 6.9 mph - N/A   Clear
12:30 PM 69.8 °F 50.0 °F 49% 30.12 in - ESE 8.1 mph - N/A   Clear
1:00 PM 74 °F 50 °F 31% 30.14 in - SE 9.2 mph - -  
1:00 PM 71.6 °F 50.0 °F 46% 30.12 in - SE 8.1 mph - N/A   Clear
1:30 PM 69.8 °F 51.8 °F 53% 30.12 in - ESE 8.1 mph - N/A   Clear
2:00 PM 74 °F 52 °F 36% 30.13 in 19 mi SE 10.4 mph - -  
2:00 PM 69.8 °F 51.8 °F 53% 30.12 in - SE 10.4 mph - N/A   Clear
2:30 PM 69.8 °F 51.8 °F 53% 30.12 in - ESE 8.1 mph - N/A   Clear
3:00 PM 73 °F 54 °F 41% 30.13 in - SE 8.1 mph - -  
3:00 PM 69.8 °F 53.6 °F 56% 30.12 in - SE 8.1 mph - N/A   Clear
3:30 PM 69.8 °F 51.8 °F 53% 30.09 in - SE 6.9 mph - N/A   Clear
5:00 PM 73 °F 54 °F 41% 30.09 in 19 mi ESE 6.9 mph - -  
5:00 PM 69.8 °F 53.6 °F 56% 30.09 in - ESE 5.8 mph - N/A   Clear
5:30 PM 69.8 °F 55.4 °F 60% 30.06 in - SE 6.9 mph - N/A   Clear
6:00 PM 74 °F 55 °F 40% 30.09 in - SE 4.6 mph - -  
6:00 PM 69.8 °F 51.8 °F 53% 30.06 in - SE 4.6 mph - N/A   Clear
6:30 PM 69.8 °F 53.6 °F 56% 30.09 in - ESE 4.6 mph - N/A   Clear
7:00 PM 72 °F 56 °F 46% 30.09 in - SE 4.6 mph - -  
7:00 PM 68.0 °F 51.8 °F 56% 30.09 in - SSE 4.6 mph - N/A   Clear
7:30 PM 68.0 °F 51.8 °F 56% 30.06 in - SE 4.6 mph - N/A   Clear
8:00 PM 70 °F 54 °F 48% 30.09 in 19 mi ESE 3.5 mph - -  
8:00 PM 66.2 °F 55.4 °F 68% 30.06 in - ESE 3.5 mph - N/A   Clear
8:30 PM 64.4 °F 53.6 °F 68% 30.09 in - Variable 2.3 mph - N/A   Clear
9:00 PM 66 °F 53 °F 53% 30.09 in - SSE 2.3 mph - -  
9:00 PM 62.6 °F 53.6 °F 72% 30.09 in - SSE 2.3 mph - N/A   Clear
9:30 PM 62.6 °F 55.4 °F 77% 30.09 in - SE 2.3 mph - N/A   Clear
10:00 PM 63 °F 53 °F 62% 30.12 in - East 1.2 mph - -  
10:00 PM 62.6 °F 53.6 °F 72% 30.09 in - Variable 1.2 mph - N/A   Clear
10:30 PM 62.6 °F 53.6 °F 72% 30.12 in - Calm Calm - N/A   Clear
11:00 PM 61 °F 53 °F 66% 30.13 in 12 mi Calm Calm - -  
11:00 PM 60.8 °F 53.6 °F 77% 30.12 in - Calm Calm - N/A   Clear
11:30 PM 57.2 °F 51.8 °F 82% 30.12 in - NW 2.3 mph - N/A   Clear